TimeIST,TemperatureF,Dew PointF,Humidity,Sea Level PressureIn,VisibilityMPH,Wind Direction,Wind SpeedMPH,Gust SpeedMPH,PrecipitationIn,Events,Conditions,WindDirDegrees,DateUTC
12:00 AM,48.2,48.2,100,29.59,5.6,SW,4.6,-,N/A,Rain,Light Rain,230,2012-10-04 23:00:00
12:30 AM,48.2,48.2,100,29.59,5.6,West,5.8,-,N/A,,Light Drizzle,260,2012-10-04 23:30:00
1:00 AM,48,48,98,29.63,12,West,6.7,,,Rain,Light Rain,260,2012-10-05 00:00:00
1:00 AM,48.2,48.2,100,29.62,6.2,West,6.9,-,N/A,,Mostly Cloudy,260,2012-10-05 00:00:00
1:30 AM,48.2,48.2,100,29.62,-9999.0,West,9.2,-,N/A,,Clear,260,2012-10-05 00:30:00
2:00 AM,48.2,48.2,100,29.62,-9999.0,West,5.8,-,N/A,,Clear,260,2012-10-05 01:00:00
2:30 AM,48.2,46.4,93,29.62,-9999.0,West,5.8,-,N/A,,Clear,270,2012-10-05 01:30:00
3:00 AM,48.2,46.4,93,29.62,-9999.0,WSW,5.8,-,N/A,,Clear,250,2012-10-05 02:00:00
3:30 AM,48.2,46.4,93,29.65,-9999.0,WSW,8.1,-,N/A,,Clear,250,2012-10-05 02:30:00
4:00 AM,46.4,46.4,100,29.65,-9999.0,WSW,8.1,-,N/A,,Clear,240,2012-10-05 03:00:00
4:30 AM,46.4,46.4,100,29.65,-9999.0,WSW,8.1,-,N/A,,Clear,250,2012-10-05 03:30:00
5:00 AM,46.4,44.6,93,29.65,-9999.0,WSW,6.9,-,N/A,,Clear,250,2012-10-05 04:00:00
5:30 AM,46.4,44.6,93,29.65,-9999.0,WSW,5.8,-,N/A,,Clear,240,2012-10-05 04:30:00
6:00 AM,46.4,44.6,93,29.68,6.2,WSW,5.8,-,N/A,,Overcast,240,2012-10-05 05:00:00
6:30 AM,46.4,44.6,93,29.68,6.2,SW,5.8,-,N/A,,Overcast,230,2012-10-05 05:30:00
7:00 AM,46,44,90,29.71,19,SW,6.7,,,,Mostly Cloudy,230,2012-10-05 06:00:00
7:00 AM,46.4,44.6,93,29.68,-9999.0,SW,6.9,-,N/A,,Clear,230,2012-10-05 06:00:00
7:30 AM,46.4,44.6,93,29.68,6.2,SW,6.9,-,N/A,,Mostly Cloudy,230,2012-10-05 06:30:00
8:00 AM,46.4,44.6,93,29.71,6.2,SW,8.1,-,N/A,,Mostly Cloudy,230,2012-10-05 07:00:00
8:30 AM,46.4,44.6,93,29.71,6.2,WSW,5.8,-,N/A,,Mostly Cloudy,240,2012-10-05 07:30:00
9:00 AM,46.4,44.6,93,29.74,6.2,WSW,6.9,-,N/A,,Mostly Cloudy,240,2012-10-05 08:00:00
9:30 AM,46.4,44.6,93,29.74,6.2,SW,5.8,-,N/A,,Mostly Cloudy,220,2012-10-05 08:30:00
10:00 AM,48.2,46.4,93,29.77,6.2,WSW,6.9,-,N/A,,Mostly Cloudy,250,2012-10-05 09:00:00
10:30 AM,50.0,46.4,87,29.77,6.2,WSW,6.9,-,N/A,,Mostly Cloudy,250,2012-10-05 09:30:00
11:00 AM,50.0,46.4,87,29.77,6.2,WSW,6.9,-,N/A,,Mostly Cloudy,250,2012-10-05 10:00:00
11:30 AM,50.0,46.4,87,29.77,6.2,West,5.8,-,N/A,,Mostly Cloudy,260,2012-10-05 10:30:00
12:00 PM,51.8,48.2,88,29.77,6.2,West,5.8,-,N/A,,Mostly Cloudy,260,2012-10-05 11:00:00
12:30 PM,51.8,46.4,82,29.77,6.2,WSW,5.8,-,N/A,,Mostly Cloudy,250,2012-10-05 11:30:00
1:00 PM,52,48,83,29.81,25,WSW,6.7,,,,Partly Cloudy,250,2012-10-05 12:00:00
1:00 PM,51.8,48.2,88,29.80,6.2,WSW,5.8,-,N/A,,Mostly Cloudy,250,2012-10-05 12:00:00
1:30 PM,51.8,48.2,88,29.77,6.2,WSW,4.6,-,N/A,,Mostly Cloudy,240,2012-10-05 12:30:00
2:00 PM,51.8,46.4,82,29.77,6.2,WSW,4.6,-,N/A,,Mostly Cloudy,250,2012-10-05 13:00:00
2:30 PM,51.8,46.4,82,29.77,6.2,WSW,6.9,-,N/A,,Mostly Cloudy,250,2012-10-05 13:30:00
3:00 PM,53.6,44.6,72,29.77,6.2,West,5.8,-,N/A,,Mostly Cloudy,260,2012-10-05 14:00:00
3:30 PM,51.8,44.6,76,29.77,6.2,West,3.5,-,N/A,,Mostly Cloudy,270,2012-10-05 14:30:00
4:00 PM,51.8,44.6,76,29.77,6.2,West,3.5,-,N/A,,Mostly Cloudy,270,2012-10-05 15:00:00
4:30 PM,51.8,46.4,82,29.77,6.2,SW,3.5,-,N/A,,Mostly Cloudy,220,2012-10-05 15:30:00
5:00 PM,51.8,46.4,82,29.77,6.2,WSW,2.3,-,N/A,Rain,Light Rain,240,2012-10-05 16:00:00
5:30 PM,50.0,48.2,94,29.77,6.2,SSW,5.8,-,N/A,Rain,Light Rain,210,2012-10-05 16:30:00
6:00 PM,50.0,48.2,94,29.77,6.2,South,5.8,-,N/A,Rain,Light Rain,180,2012-10-05 17:00:00
6:30 PM,48.2,46.4,93,29.77,6.2,SW,4.6,-,N/A,Rain,Light Rain,220,2012-10-05 17:30:00
7:00 PM,47,46,94,29.80,12,South,6.7,,,Rain,Light Rain,180,2012-10-05 18:00:00
7:00 PM,46.4,46.4,100,29.77,6.2,South,5.8,-,N/A,,Mostly Cloudy,180,2012-10-05 18:00:00
7:30 PM,46.4,44.6,93,29.80,6.2,SW,4.6,-,N/A,,Mostly Cloudy,230,2012-10-05 18:30:00
8:00 PM,46.4,44.6,93,29.77,6.2,South,3.5,-,N/A,,Mostly Cloudy,180,2012-10-05 19:00:00
8:30 PM,46.4,46.4,100,29.80,6.2,Variable,2.3,-,N/A,Rain,Light Rain,0,2012-10-05 19:30:00
9:00 PM,46.4,46.4,100,29.80,6.2,NW,4.6,-,N/A,Rain,Light Rain,310,2012-10-05 20:00:00
9:30 PM,46.4,46.4,100,29.80,6.2,NW,3.5,-,N/A,,Mostly Cloudy,310,2012-10-05 20:30:00
10:00 PM,46.4,46.4,100,29.80,6.2,WNW,3.5,-,N/A,,Mostly Cloudy,300,2012-10-05 21:00:00
10:30 PM,46.4,44.6,93,29.83,6.2,WNW,3.5,-,N/A,,Mostly Cloudy,300,2012-10-05 21:30:00
11:00 PM,46.4,44.6,93,29.83,6.2,WNW,3.5,-,N/A,,Mostly Cloudy,300,2012-10-05 22:00:00
11:30 PM,46.4,44.6,93,29.83,6.2,NW,5.8,-,N/A,,Mostly Cloudy,320,2012-10-05 22:30:00